Tracking 18876 objects as of 14-Dec-2017
HD Live streaming from Space Station
objects crossing your sky now

THORAD AGENA D DEB

Track THORAD AGENA D DEB now!
10-day predictions


NORAD ID: 4171
Int'l Code: 1969-082AP
Perigee: 769.7 km
Apogee: 820.5 km
Inclination: 70.1 °
Period: 100.6 minutes
Semi major axis: 7166 km
RCS: 0.0461 m2 (small)
Launch date: September 30, 1969
Source: United States (US)
Launch site: AIR FORCE WESTERN TEST RANGE (AFWTR)

Note: This is SATELLITE DEBRIS
aabbcc
Your satellite tracking list
Your tracking list is empty




NASA's NSSDC Master Catalog

Two Line Element Set (TLE):
1  4171U 69082AP  17347.44386319 +.00000220 +00000-0 +10412-3 0  9993
2  4171 070.0788 009.7678 0035416 146.8222 213.5134 14.31134446493978
Source of the keplerian elements: AFSPC